Regional Weather Roundup
Issued by NWS

Home | Current Version | Previous Version | Text Only | Print | Product List | Glossary On
Versions: 1 2 3 4 5 6 7 8 9 10 11 12 13 14 15 16 17 18 19 20 21 22 23 24 25 26 27
000
ASUS42 KTBW 240916
RWRFL
FLORIDA REGIONAL WEATHER ROUNDUP
NATIONAL WEATHER SERVICE TAMPA BAY RUSKIN FL
500 AM EDT THU AUG 24 2017

NOTE: "FAIR" INDICATES FEW OR NO CLOUDS BELOW 12,000 FEET WITH NO
SIGNIFICANT WEATHER AND/OR OBSTRUCTIONS TO VISIBILITY.

FLZ001>010-012>015-112-114-115-241000-
PANHANDLE FLORIDA

CITY           SKY/WX    TMP DP  RH WIND       PRES   REMARKS
PENSACOLA      CLOUDY    77  72  84 NW3       29.87F
PENSACOLA NAS  PTCLDY    75  71  87 N3        29.87F
MILTON NAS     MOCLDY    74  73  97 CALM      29.88
CRESTVIEW      CLOUDY    74  72  93 N3        29.89F
DUKE FIELD     FAIR      74  72  95 CALM      29.87F
VALPARAISO     CLOUDY    76  73  88 N5        29.86F
MARY ESTHER    PTCLDY    75  73  91 N6        29.85F
PANAMA CITY    FAIR      78  73  84 NW7       29.84F
TYNDALL AFB    MOCLDY    80  73  78 N7        29.84F
APALACHICOLA   CLOUDY    79  78  97 N6        29.84S

STATION/POSITION SKY/WX   TEMP    WIND        PRES    WAVE   SWELL
                          AIR SEA DIR/SP/G            HT/PER HT/PER
                          (F)     (DEG/KT/KT) (MB)    (FT/S) (FT/S)
30.1N   87.6W              81 88   20/ 12/ 14 1011.0F   1/ 6
29.2N   88.2W              84 87   CALM  /  2 1011.1
28.8N   86.0W              84 86  330/  8/ 12 1010.4F   2/ 8   2/ 8
PANAMA CITY BEAC           80     340/  5/  6 1011.3F
TOWER C                    83                 1010.9F
28.5N   84.5W              83 86   50/  2/  4 1010.5F   1/ 8   2/ 8

$$
FLZ011-016>038-118-127-128-134-139-239-241000-
NORTH FLORIDA

CITY           SKY/WX    TMP DP  RH WIND       PRES   REMARKS
MARIANNA       CLOUDY    77  75  93 CALM      29.85F
TALLAHASSEE    PTCLDY    80  74  81 NW6       29.85F
PERRY          PTCLDY    76  74  93 E3        29.87S
LIVE OAK       MOCLDY    75  75 100 CALM      29.88F
CROSS CITY     CLOUDY    75  74  98 CALM      29.92S
LAKE CITY      FAIR      72  72 100 CALM      29.89S
GAINESVILLE    PTCLDY    75  73  93 CALM      29.90F
WILLISTON      CLEAR     77  75  94 CALM      29.88S
PALATKA        FAIR      75  75 100 CALM      29.88F
MAYPORT NAS    PTCLDY    77  76  96 SW3       29.86F
JACKSONVILLE   PTCLDY    77  76  96 W3        29.87F
JAX NAS        MOCLDY    81  76  84 VRB3      29.88F
JAX CECIL      CLOUDY    75  75 100 CALM      29.87F
FERNANDINA BEA FAIR      79  75  89 SW6       29.86F
ST AUGUSTINE   CLEAR     77  75  93 S6        29.88F
PALM COAST     FAIR      76  29  18 CALM      29.89S

STATION/POSITION SKY/WX   TEMP    WIND        PRES    WAVE   SWELL
                          AIR SEA DIR/SP/G            HT/PER HT/PER
                          (F)     (DEG/KT/KT) (MB)    (FT/S) (FT/S)
SHELL POINT      NOT AVBL
KEATON BEACH               79      70/  3/  4 1010.8F
CEDAR KEY                  79      50/  3/  4 1011.3F
FERNANDINA                 81 86  190/  3/  4 1012.1F
30.7N   81.3W                 84                N/A     3/ 9
MAYPORT                    79 86  210/  2/  5 1011.9F
31.4N   80.9W              84 85  190/ 16/ 19 1010.9F   4/ 4   2/ 8
ST AUGUSTINE               78 83  190/  6/  6 1011.8F

$$
FLZ040-043>046-052-053-057-058-063-144-241000-
INTERIOR CENTRAL FLORIDA

CITY           SKY/WX    TMP DP  RH WIND       PRES   REMARKS
OCALA          CLOUDY    75  73  94 CALM      29.88F
THE VILLAGES     N/A     79  79 100 CALM      29.79S
LEESBURG       CLOUDY    80  78  94 CALM      29.89S
SANFORD        CLOUDY    78  75  90 S3        29.88
ORLANDO EXEC   PTCLDY    77  76  96 CALM      29.88S
ORLANDO INTL   CLOUDY    76  76 100 CALM      29.88S
KISSIMMEE      MOCLDY    78  76  93 CALM      29.89S
WINTER HAVEN   MOCLDY    77  74  90 CALM      29.89S
LAKELAND         N/A     75  75 100 E3        29.88S
BARTOW         FAIR      73 N/A N/A CALM      29.88S
SEBRING        FAIR      76  74  93 NE3       29.87S
OKEECHOBEE     PTCLDY    73  73 100 CALM      29.86F

$$
FLZ041-047-054-059-064-141-147-241000-
EAST CENTRAL FLORIDA

CITY           SKY/WX    TMP DP  RH WIND       PRES   REMARKS
DAYTONA BEACH  PTCLDY    77  76  96 CALM      29.89S
DELAND         PTCLDY    77  75  94 CALM      29.88S
JFK SPACE CTR  PTCLDY    79  76  92 S6        29.86S
CAPE CANAVERAL PTCLDY    79  75  88 S7        29.86S
PATRICK AFB    PTCLDY    80  75  86 S5        29.87S
MELBOURNE      PTCLDY    79  75  87 S5        29.87S
VERO BEACH     PTCLDY    75  73  93 CALM      29.87S
FT PIERCE      PTCLDY    75  75 100 CALM      29.86F
STUART         PTCLDY    77  77 100 CALM      29.87S

STATION/POSITION SKY/WX   TEMP    WIND        PRES    WAVE   SWELL
                          AIR SEA DIR/SP/G            HT/PER HT/PER
                          (F)     (DEG/KT/KT) (MB)    (FT/S) (FT/S)
28.5N   80.2W              83 83  190/ 10/ 12 1012.7S   3/ 8   2/ 8
28.9N   78.5W              85 85  180/ 12/ 14 1012.1F   3/ 9   3/ 9
TRIDENT PIER               81 86  190/  7/  9 1013.1S
28.4N   80.5W                 85                N/A     3/ 4
27.5N   80.2W                 84                N/A     2/ 9

$$
FLZ050-056-061-142-242-148-248-149-249-151-251-155-255-
160-260-241000-
WEST CENTRAL FLORIDA

CITY           SKY/WX    TMP DP  RH WIND       PRES   REMARKS
CRYSTAL RIVER  FAIR      77  73  88 CALM      29.87S
INVERNESS      FAIR      75  75 100 CALM      29.88F
BROOKSVILLE    CLOUDY    77  75  93 NE5       29.88S
CLEARWATER AIR FAIR      77  77 100 NE5       29.86S
ST PETE CLEARW PTCLDY    79  76  90 E6        29.86S
TAMPA INTL     MOCLDY    79  76  90 NE6       29.87S
TAMPA EXEC     PTCLDY    77  73  88 CALM      29.88R FOG
PLANT CITY     PTCLDY    77  77 100 E3        29.89S
MACDILL AFB    MOCLDY    76  76 100 E5        29.86S
PETER O KNIGHT MOCLDY    79  79 100 NE6       29.87R
ST PETERSBURG  CLOUDY    81  75  82 SE5       29.84S
SARASOTA       MOCLDY    76  76 100 E5        29.84S
VENICE         FAIR      77  77 100 E7        29.85S

STATION/POSITION SKY/WX   TEMP    WIND        PRES    WAVE   SWELL
                          AIR SEA DIR/SP/G            HT/PER HT/PER
                          (F)     (DEG/KT/KT) (MB)    (FT/S) (FT/S)
CLEARWATER BEACH           79 88   40/  6/  7 1011.2F
MIDDLE TAMPA BAY           79     110/  7/  8 1011.1S
VENICE                     77 87   80/  5/  7 1010.8R

$$
FLZ066-069-070-075>078-162-262-165-265-241000-
SOUTHWEST FLORIDA AND KEYS

CITY           SKY/WX    TMP DP  RH WIND       PRES   REMARKS
PUNTA GORDA    CLOUDY    77  76  96 SE3       29.86F
FT MYERS       CLOUDY    77  77 100 CALM      29.83F
SOUTHWEST INTL PTCLDY    77  75  93 E3        29.84F
NAPLES         CLOUDY    77  77 100 CALM      29.83F
IMMOKALEE      FAIR      75  75 100 NE3       29.85F
MARATHON       MOCLDY   N/A N/A N/A S3        29.82F
KEY WEST NAS   CLOUDY    83  80  91 SW10      29.82F HX  95
KEY WEST INTL  CLOUDY    84  77  79 SW9       29.82F

STATION/POSITION SKY/WX   TEMP    WIND        PRES    WAVE   SWELL
                          AIR SEA DIR/SP/G            HT/PER HT/PER
                          (F)     (DEG/KT/KT) (MB)    (FT/S) (FT/S)
NAPLES                        88  150/  2/  3 1010.1F
DRY TORTUGAS               84     190/  9/ 10 1009.7R
SAND KEY                   83                 1010.5F
MOLASSES REEF              81 86  160/  7     1010.6F

$$
FLZ067-068-071>074-168-172>174-241000-
SOUTHEAST FLORIDA

CITY           SKY/WX    TMP DP  RH WIND       PRES   REMARKS
W PALM BEACH   MOCLDY    82  75  79 SE9       29.85F
FT LAUDER-EXEC CLOUDY    81  77  88 S3        29.84S
FT LAUDERDALE  CLOUDY    80  77  90 W3        29.83F
POMPANO BEACH  CLOUDY    83  75  77 S5        29.83F
PEMBROKE PINES CLOUDY    80  76  87 CALM      29.85F
OPA LOCKA      MOCLDY    79  78  97 CALM      29.84F
MIAMI          LGT RAIN  81  76  84 VRB3      29.83F
WEST KENDALL   CLOUDY    79  76  90 CALM      29.83F
HOMESTEAD      CLOUDY    78  78 100 CALM      29.83F

STATION/POSITION SKY/WX   TEMP    WIND        PRES    WAVE   SWELL
                          AIR SEA DIR/SP/G            HT/PER HT/PER
                          (F)     (DEG/KT/KT) (MB)    (FT/S) (FT/S)
PORT EVERGLADES            81     220/  2/  4 1010.2
VIRGINIA KEY               83 87  140/  6/  9 1009.7F
LAKE WORTH                        150/ 13/ 16   N/A
FOWEY ROCKS                83 85  160/ 14/ 15 1010.7F
SETTLEMENT POINT           83     130/  7/  8 1011.5F

$$





USA.gov is the U.S. government's official web portal to all federal, state and local government web resources and services.